Estherville, IA

4:04 AM CDT on July 28, 2017 (GMT -0500)
Estherville Municipal

Weather History for KEST - March, 2013

Change the Weather History Date:

Saturday, March 16, 2013

  Actual Average Record
Temperature  
Mean Temperature 24 °F 33 °F  
Max Temperature 32 °F 42 °F 80 °F (2012)
Min Temperature 16 °F 24 °F 0 °F (1951)
Degree Days  
Heating Degree Days 41 32  
Month to date heating degree days 642 573  
Since 1 July heating degree days 6281 6488  
Cooling Degree Days 0 0  
Month to date cooling degree days 0 0  
Year to date cooling degree days 0 0  
Moisture  
Dew Point 21 °F    
Average Humidity 86    
Maximum Humidity 100    
Minimum Humidity 71    
Precipitation  
Precipitation 0.00 in 0.06 in 1.50 in (1965)
Month to date precipitation 1.04 0.58  
Sea Level Pressure  
Sea Level Pressure 30.07 in    
Wind  
Wind Speed 16 mph (NNW)    
Max Wind Speed 24 mph    
Max Gust Speed 30 mph    
Visibility 8 miles    
Events      
T = Trace of Precipitation, MM = Missing Value Source: NWS Daily Summary

Daily Weather History Graph

Daily Weather History Graph

Search for Another Location

Airport or City:

Trip Planner

Search our weather history database for the weather conditions in past years. The results will help you decide how hot, cold, wet, or windy it might be!

Date:

Astronomy

Mar. 16, 2013 Rise Set
Actual Time 7:28 AM CDT 7:26 PM CDT
Civil Twilight 7:00 AM CDT 7:55 PM CDT
Nautical Twilight 6:27 AM CDT 8:28 PM CDT
Astronomical Twilight 5:53 AM CDT 9:02 PM CDT
Moon 9:50 AM CDT (3/16) No Moon Set
Length of Visible Light 12h 54m
Length of Day
11h 58m
Waxing Crescent, 23% of the Moon is Illuminated
Mar 16
Waxing Crescent
Mar 19
First Quarter
Mar 27
Full
Apr 2
Last Quarter
Apr 10
New

Hourly Weather History & Observations

Time (CDT) Temp. Windchill Dew Point Humidity Pressure Visibility Wind Dir Wind Speed Gust Speed Precip Events Conditions
12:52 AM 32.0 °F 23.0 °F 30.9 °F 96% 29.88 in 1.5 mi NNW 11.5 mph - N/A   Overcast
1:07 AM 32.0 °F 22.5 °F 30.2 °F 93% 29.84 in 2.0 mi NNW 12.7 mph - N/A   Overcast
1:52 AM 30.9 °F 19.4 °F 30.0 °F 96% 29.90 in 1.5 mi North 17.3 mph 24.2 mph N/A   Overcast
2:01 AM 30.2 °F 18.9 °F 30.2 °F 100% 29.86 in 3.0 mi North 16.1 mph - N/A   Overcast
2:21 AM 30.2 °F 19.3 °F 28.4 °F 93% 29.87 in 2.5 mi North 15.0 mph - N/A   Overcast
2:28 AM 30.2 °F 18.9 °F 28.4 °F 93% 29.87 in 4.0 mi North 16.1 mph - N/A   Overcast
2:52 AM 30.9 °F 20.2 °F 28.9 °F 92% 29.92 in 3.0 mi North 15.0 mph - N/A   Overcast
3:36 AM 30.2 °F 17.8 °F 28.4 °F 93% 29.90 in 7.0 mi NNW 19.6 mph 24.2 mph N/A   Overcast
3:52 AM 30.0 °F 17.9 °F 28.0 °F 92% 29.96 in 7.0 mi North 18.4 mph 25.3 mph N/A   Overcast
4:09 AM 30.2 °F 18.5 °F 28.4 °F 93% 29.92 in 7.0 mi NNW 17.3 mph 24.2 mph N/A   Overcast
4:52 AM 28.9 °F 16.5 °F 26.1 °F 89% 29.99 in 10.0 mi NNW 18.4 mph - N/A   Overcast
5:13 AM 28.4 °F 16.2 °F 26.6 °F 93% 29.96 in 10.0 mi NNW 17.3 mph - N/A   Overcast
5:26 AM 28.4 °F 15.4 °F 24.8 °F 86% 29.97 in 10.0 mi NNW 19.6 mph - N/A   Overcast
5:52 AM 28.0 °F 14.3 °F 24.1 °F 85% 30.03 in 10.0 mi NNW 21.9 mph - N/A   Overcast
5:59 AM 28.4 °F 15.1 °F 24.8 °F 86% 29.98 in 10.0 mi NNW 20.7 mph - N/A   Overcast
6:06 AM 28.4 °F 15.1 °F 24.8 °F 86% 29.99 in 10.0 mi NNW 20.7 mph 26.5 mph N/A   Overcast
6:52 AM 27.0 °F 12.2 °F 23.0 °F 85% 30.06 in 10.0 mi North 24.2 mph 28.8 mph N/A   Overcast
7:33 AM 26.6 °F 13.1 °F 21.2 °F 80% 30.04 in 10.0 mi North 19.6 mph - N/A   Overcast
7:52 AM 26.1 °F 12.3 °F 21.9 °F 84% 30.11 in 10.0 mi NNW 19.6 mph - N/A   Overcast
7:59 AM 24.8 °F 9.6 °F 21.2 °F 86% 30.06 in 9.0 mi NNW 23.0 mph 28.8 mph N/A   Overcast
8:52 AM 24.1 °F 9.8 °F 21.0 °F 88% 30.12 in 10.0 mi NNW 19.6 mph 26.5 mph N/A   Overcast
9:40 AM 24.8 °F 10.7 °F 19.4 °F 80% 30.09 in 10.0 mi NNW 19.6 mph - N/A   Overcast
9:52 AM 24.1 °F 9.4 °F 19.9 °F 84% 30.14 in 10.0 mi NNW 20.7 mph - N/A   Overcast
10:07 AM 24.8 °F 11.5 °F 19.4 °F 80% 30.10 in 9.0 mi NNW 17.3 mph 23.0 mph N/A   Overcast
10:14 AM 23.0 °F 9.2 °F 19.4 °F 86% 30.10 in 10.0 mi NNW 17.3 mph - N/A   Overcast
10:23 AM 23.0 °F 9.2 °F 19.4 °F 86% 30.10 in 10.0 mi North 17.3 mph 24.2 mph N/A   Overcast
10:52 AM 23.0 °F 9.2 °F 18.0 °F 81% 30.15 in 10.0 mi North 17.3 mph - N/A   Overcast
11:52 AM 23.0 °F 8.3 °F 18.0 °F 81% 30.16 in 10.0 mi North 19.6 mph - N/A   Overcast
12:52 PM 21.9 °F 8.7 °F 16.0 °F 78% 30.19 in 10.0 mi North 15.0 mph - N/A   Overcast
1:52 PM 23.0 °F 11.1 °F 17.1 °F 78% 30.18 in 10.0 mi North 12.7 mph - N/A   Overcast
2:52 PM 24.1 °F 11.5 °F 17.1 °F 75% 30.15 in 10.0 mi North 15.0 mph - N/A   Overcast
3:05 PM 24.8 °F 11.5 °F 17.6 °F 74% 30.09 in 10.0 mi North 17.3 mph - N/A   Overcast
3:52 PM 23.0 °F 11.1 °F 16.0 °F 74% 30.16 in 10.0 mi North 12.7 mph - N/A   Overcast
4:52 PM 23.0 °F 10.6 °F 16.0 °F 74% 30.17 in 10.0 mi North 13.8 mph - N/A   Overcast
5:52 PM 23.0 °F 11.1 °F 16.0 °F 74% 30.18 in 10.0 mi NNW 12.7 mph 18.4 mph N/A   Mostly Cloudy
6:21 PM 21.2 °F 7.8 °F 15.8 °F 80% 30.13 in 10.0 mi NNW 15.0 mph - N/A   Partly Cloudy
6:52 PM 21.9 °F 9.2 °F 15.1 °F 75% 30.17 in 10.0 mi North 13.8 mph - N/A   Mostly Cloudy
7:52 PM 21.0 °F 8.1 °F 14.0 °F 74% 30.20 in 10.0 mi North 13.8 mph - N/A   Mostly Cloudy
8:52 PM 19.0 °F 4.0 °F 12.0 °F 74% 30.23 in 10.0 mi North 17.3 mph - N/A   Mostly Cloudy
9:02 PM 19.4 °F 5.0 °F 12.2 °F 74% 30.17 in 10.0 mi North 16.1 mph - N/A   Scattered Clouds
9:52 PM 18.0 °F 5.4 °F 10.9 °F 74% 30.27 in 10.0 mi NNW 11.5 mph - N/A   Clear
10:52 PM 18.0 °F 4.2 °F 10.9 °F 74% 30.27 in 10.0 mi North 13.8 mph - N/A   Clear
11:52 PM 17.1 °F 4.3 °F 10.0 °F 74% 30.27 in 10.0 mi North 11.5 mph - N/A   Clear